Weather Roundup
Issued by NWS Springfield, MO

Home | Current Version | Previous Version | Text Only | Print | Product List | Glossary On
Versions: 1 2 3 4 5 6 7 8 9 10 11 12 13 14 15 16 17 18 19 20 21 22 23 24 25 26 27 28 29 30 31 32 33 34 35 36 37 38 39 40 41 42 43 44 45 46 47 48 49 50
000
NZUS99 KSGF 230007
HRRSGF

HOURLY WEATHER
NATIONAL WEATHER SERVICE SPRINGFIELD MO
700 PM CDT TUE JUL 22 2014

......SGF CWA......

CITY           SKY/WX    TMP DP  RH WIND       PRES   REMARKS
SPRINGFIELD    MOSUNNY   90  76  63 SW7       30.04F HX 101
6HR MIN TEMP:  87; 6HR MAX TEMP:  93;

JOPLIN         MOSUNNY   93  73  52 SW8       30.03F HX 102
6HR MIN TEMP:  91; 6HR MAX TEMP:  97;

WEST PLAINS    MOSUNNY   85  71  63 S3        30.08R HX  90
6HR MIN TEMP:  83; 6HR MAX TEMP:  88;

ROLLA          SUNNY     90  72  55 SW6       30.02R HX  97
6HR MIN TEMP:  87; 6HR MAX TEMP:  93;

OSAGE BEACH    MOSUNNY   91  75  59 SW5       30.00S HX 102
BRANSON        MOSUNNY   93  72  49 CALM      30.06F HX 100

......SURROUNDING SGF CWA......

CITY           SKY/WX    TMP DP  RH WIND       PRES   REMARKS
CHANUTE        MOSUNNY   93  73  52 SW6       30.03R HX 102
PARSONS        MOSUNNY   94  75  54 S6        30.04S HX 105
COFFEYVILLE    SUNNY     94  74  52 SW7       30.01F HX 104
EMPORIA        MOSUNNY   97  66  36 SW5       30.03R HX 100
GROVE OK       MOSUNNY   93  72  49 SW3       30.05S HX 100
ROGERS AR      MOSUNNY   87  75  67 CALM      30.08S HX  96
SILOAM SPRINGS MOSUNNY   90  72  55 NW6       30.07S HX  96
HARRISON AR    SUNNY     88  74  63 S9        30.07S HX  96
NEAR YELLVILLE MOSUNNY   88  70  55 S5        30.05S HX  92

......KANSAS AND MISSOURI......

CITY           SKY/WX    TMP DP  RH WIND       PRES   REMARKS
KANSAS CTY INT MOSUNNY   95  78  58 NW5       30.01S HX 111
DOWNTOWN KC    SUNNY     97  73  45 W6        29.98S HX 107
COLUMBIA       MOSUNNY   92  76  59 W7        30.01R HX 104
SEDALIA        MOSUNNY   91  78  65 W6        30.01R HAZE    HX 106
ST JOSEPH      MOSUNNY   92  81  70 N12       30.01R HX 112
ST LOUIS       PTSUNNY   91  72  53 S7        30.01S HX  98
SPIRIT OF STL  PTSUNNY   87  73  62 SE5       29.99S HX  94
KIRKSVILLE     PTSUNNY   91  80  70 NW5       30.02R HX 109
WICHITA        PTSUNNY   94  71  47 S10       30.04S HX 101
TOPEKA         SUNNY    102  68  33 NW7       29.99S HX 108
OLATHE         MOSUNNY   93  75  55 SW8       30.00F HX 104

......TENNESSEE......

CITY           SKY/WX    TMP DP  RH WIND       PRES   REMARKS
MEMPHIS        MOSUNNY   88  69  53 NW6       30.03S HX  92
NASHVILLE      MOSUNNY   86  71  60 W3        30.04S HX  91

......ARKANSAS.......

CITY           SKY/WX    TMP DP  RH WIND       PRES   REMARKS
FAYETTEVILLE   MOSUNNY   88  73  61 CALM      30.07S HX  95
FT SMITH       SUNNY     90  71  53 S8        30.03S HX  96
LITTLE ROCK    PTSUNNY   86  67  52 S5        30.04F

......OKLAHOMA.......

CITY           SKY/WX    TMP DP  RH WIND       PRES   REMARKS
TULSA          MOSUNNY   93  75  55 S8        30.02S HX 104
PONCA CITY     SUNNY     93  73  52 VRB5      30.03S HX 102
MCALESTER      MOSUNNY   91  74  57 CALM      30.05F HX 100
OKLAHOMA CITY  MOSUNNY   93  73  52 SE9       30.05S HX 102

......IOWA............

CITY           SKY/WX    TMP DP  RH WIND       PRES   REMARKS
DES MOINES     PTSUNNY   85  70  60 N10       30.03S
QUAD CITIES    CLOUDY    85  77  77 SW7       29.97R HX  95

......ILLINOIS........

CITY           SKY/WX    TMP DP  RH WIND       PRES   REMARKS
QUINCY         CLOUDY    84  78  82 SE3       29.99S HX  95
CHICAGO        CLOUDY    87  72  60 SW15      29.94R HX  93



USA.gov is the U.S. government's official web portal to all federal, state and local government web resources and services.